Location: ?????
(55.6500°N, 37.2500°E)
Time: 14:00:53
(UTC+00:00)

Cosmos 405 Rocket - Visible Passes

Search period start: 22 April 2026 00:00
Search period end: 02 May 2026 00:00
Orbit: 362 x 385 km, 81.2° (Epoch: 22 April)

Date Brightness Start Highest point End Pass type
(mag) Time Alt. Az. Time Alt. Az. Time Alt. Az.
22 Apr 3.0 18:47:40 10° NNW 18:50:29 41° W 18:52:20 18° SSW visible
23 Apr 2.6 17:48:19 10° N 17:51:10 41° ENE 17:53:50 11° SE visible
23 Apr 4.8 19:22:05 10° NW 19:23:46 14° W 19:25:27 10° SW visible
24 Apr 2.6 18:21:47 10° NNW 18:24:41 53° W 18:27:25 11° S visible
25 Apr 4.6 18:55:50 10° NW 18:57:54 17° W 18:59:56 10° SW visible
26 Apr 2.2 17:55:40 10° NNW 17:58:37 70° WSW 18:01:33 10° S visible
27 Apr 4.4 18:29:24 10° NW 18:31:45 21° W 18:34:04 10° SW visible
29 Apr 4.1 18:02:48 10° NW 18:05:21 26° W 18:07:53 10° SSW visible
